Tracking 20369 objects as of 18-Feb-2020
HD Live streaming from Space Station
objects crossing your sky now

FORMOSAT 3B

Track FORMOSAT 3B now!
10-day predictions
FORMOSAT 3B is classified as:


NORAD ID: 29048
Int'l Code: 2006-011B
Perigee: 770.8 km
Apogee: 835.8 km
Inclination: 72.0 °
Period: 100.8 minutes
Semi major axis: 7174 km
RCS: 0.6095 m2 (medium)
Launch date: April 15, 2006
Source: Taiwan (Republic of China) (ROC)
Launch site: AIR FORCE WESTERN TEST RANGE (AFWTR)
aabbcc
Your satellite tracking list
Your tracking list is empty




NASA's NSSDC Master Catalog

Two Line Element Set (TLE):
1 29048U 06011B   20048.85490734  .00000036  00000-0  30785-4 0  9991
2 29048  71.9648 267.1876 0045265 228.8336 130.8892 14.28680049726582
Source of the keplerian elements: AFSPC